Time,TemperatureF,DewpointF,PressureIn,WindDirection,WindDirectionDegrees,WindSpeedMPH,WindSpeedGustMPH,Humidity,HourlyPrecipIn,Conditions,Clouds,dailyrainin,SoftwareType,DateUTC
2013-06-09 00:00:00,59.8,57.2,29.95,SW,229,0.0,5.0,91,0.00,,,0.00,Wunderground v.1.15,2013-06-09 04:00:00,
2013-06-09 00:05:00,59.7,57.4,29.95,SW,229,0.0,5.0,92,0.00,,,0.00,Wunderground v.1.15,2013-06-09 04:05:00,
2013-06-09 00:10:00,59.5,57.2,29.95,SW,229,0.0,5.0,92,0.00,,,0.00,Wunderground v.1.15,2013-06-09 04:10:00,
2013-06-09 00:15:00,59.4,57.1,29.96,SW,229,0.0,5.0,92,0.00,,,0.00,Wunderground v.1.15,2013-06-09 04:15:00,
2013-06-09 00:20:00,59.3,57.0,29.96,SW,229,0.0,5.0,92,0.00,,,0.00,Wunderground v.1.15,2013-06-09 04:20:00,
2013-06-09 00:25:00,59.3,57.3,29.96,SW,229,0.0,5.0,93,0.00,,,0.00,Wunderground v.1.15,2013-06-09 04:25:00,
2013-06-09 00:35:00,59.2,57.2,29.96,SW,229,0.0,5.0,93,0.00,,,0.00,Wunderground v.1.15,2013-06-09 04:35:00,
2013-06-09 00:45:00,59.1,57.1,29.96,SW,229,0.0,5.0,93,0.00,,,0.00,Wunderground v.1.15,2013-06-09 04:45:00,
2013-06-09 00:50:00,59.2,57.2,29.96,SW,229,0.0,5.0,93,0.00,,,0.00,Wunderground v.1.15,2013-06-09 04:50:00,
2013-06-09 00:55:00,59.3,57.6,29.96,SW,229,0.0,5.0,94,0.00,,,0.00,Wunderground v.1.15,2013-06-09 04:55:00,
2013-06-09 01:00:00,59.5,58.1,29.96,SW,229,0.0,5.0,95,0.00,,,0.00,Wunderground v.1.15,2013-06-09 05:00:00,
2013-06-09 01:10:00,59.9,58.2,29.96,SW,229,0.0,5.0,94,0.00,,,0.00,Wunderground v.1.15,2013-06-09 05:10:00,
2013-06-09 01:15:00,60.0,58.3,29.96,SW,229,0.0,5.0,94,0.00,,,0.00,Wunderground v.1.15,2013-06-09 05:15:00,
2013-06-09 01:20:00,60.0,58.3,29.96,SW,229,0.0,5.0,94,0.00,,,0.00,Wunderground v.1.15,2013-06-09 05:20:00,
2013-06-09 01:25:00,60.1,58.4,29.96,SW,229,0.0,5.0,94,0.00,,,0.00,Wunderground v.1.15,2013-06-09 05:25:00,
2013-06-09 01:35:00,60.0,58.0,29.96,SW,229,0.0,5.0,93,0.00,,,0.00,Wunderground v.1.15,2013-06-09 05:35:00,
2013-06-09 01:40:00,60.0,58.0,29.96,SW,229,0.0,5.0,93,0.00,,,0.00,Wunderground v.1.15,2013-06-09 05:40:00,
2013-06-09 01:50:00,60.0,58.0,29.96,SW,229,0.0,5.0,93,0.00,,,0.00,Wunderground v.1.15,2013-06-09 05:50:00,
2013-06-09 01:55:00,59.9,57.9,29.96,SW,229,0.0,5.0,93,0.00,,,0.00,Wunderground v.1.15,2013-06-09 05:55:00,
2013-06-09 02:00:00,60.0,58.0,29.96,SW,229,0.0,5.0,93,0.00,,,0.00,Wunderground v.1.15,2013-06-09 06:00:00,
2013-06-09 02:05:00,59.9,58.2,29.96,SW,229,0.0,5.0,94,0.00,,,0.00,Wunderground v.1.15,2013-06-09 06:05:00,
2013-06-09 02:10:00,59.9,57.9,29.96,SW,229,0.0,5.0,93,0.00,,,0.00,Wunderground v.1.15,2013-06-09 06:10:00,
2013-06-09 02:15:00,59.9,57.9,29.95,SW,229,0.0,5.0,93,0.00,,,0.00,Wunderground v.1.15,2013-06-09 06:15:00,
2013-06-09 02:20:00,59.9,57.6,29.95,SW,229,0.0,5.0,92,0.00,,,0.00,Wunderground v.1.15,2013-06-09 06:20:00,
2013-06-09 02:25:00,59.9,57.6,29.95,SW,229,0.0,5.0,92,0.00,,,0.00,Wunderground v.1.15,2013-06-09 06:25:00,
2013-06-09 02:30:00,60.0,57.7,29.95,SW,229,0.0,5.0,92,0.00,,,0.00,Wunderground v.1.15,2013-06-09 06:30:00,
2013-06-09 02:35:00,60.1,57.8,29.95,SW,229,0.0,5.0,92,0.00,,,0.00,Wunderground v.1.15,2013-06-09 06:35:00,
2013-06-09 02:40:00,60.2,58.2,29.95,SW,229,0.0,5.0,93,0.00,,,0.00,Wunderground v.1.15,2013-06-09 06:40:00,
2013-06-09 02:45:00,60.2,57.9,29.94,SW,229,0.0,5.0,92,0.00,,,0.00,Wunderground v.1.15,2013-06-09 06:45:00,
2013-06-09 02:50:00,60.2,57.9,29.95,SW,229,0.0,5.0,92,0.00,,,0.00,Wunderground v.1.15,2013-06-09 06:50:00,
2013-06-09 02:55:00,60.2,57.9,29.95,SW,229,0.0,5.0,92,0.00,,,0.00,Wunderground v.1.15,2013-06-09 06:55:00,
2013-06-09 03:00:00,60.2,57.9,29.94,SW,229,0.0,5.0,92,0.00,,,0.00,Wunderground v.1.15,2013-06-09 07:00:00,
2013-06-09 03:05:00,60.1,58.1,29.94,SW,229,0.0,5.0,93,0.00,,,0.00,Wunderground v.1.15,2013-06-09 07:05:00,
2013-06-09 03:10:00,60.0,58.0,29.94,SW,229,0.0,5.0,93,0.00,,,0.00,Wunderground v.1.15,2013-06-09 07:10:00,
2013-06-09 03:20:00,60.0,57.7,29.94,SW,229,0.0,5.0,92,0.00,,,0.00,Wunderground v.1.15,2013-06-09 07:20:00,
2013-06-09 03:25:00,60.0,58.0,29.94,SW,229,0.0,5.0,93,0.00,,,0.00,Wunderground v.1.15,2013-06-09 07:25:00,
2013-06-09 03:30:00,60.1,58.1,29.94,SW,229,0.0,5.0,93,0.00,,,0.00,Wunderground v.1.15,2013-06-09 07:30:00,
2013-06-09 03:35:00,60.1,58.1,29.94,SW,229,0.0,5.0,93,0.00,,,0.00,Wunderground v.1.15,2013-06-09 07:35:00,
2013-06-09 03:40:00,60.1,58.1,29.94,SW,229,0.0,5.0,93,0.00,,,0.00,Wunderground v.1.15,2013-06-09 07:40:00,
2013-06-09 03:45:00,60.0,58.0,29.94,SW,229,0.0,5.0,93,0.00,,,0.00,Wunderground v.1.15,2013-06-09 07:45:00,
2013-06-09 03:55:00,60.0,58.0,29.94,SW,229,0.0,5.0,93,0.00,,,0.00,Wunderground v.1.15,2013-06-09 07:55:00,
2013-06-09 04:00:00,59.9,58.2,29.95,SW,229,0.0,5.0,94,0.00,,,0.00,Wunderground v.1.15,2013-06-09 08:00:00,
2013-06-09 04:05:00,60.0,58.3,29.95,SW,229,0.0,5.0,94,0.00,,,0.00,Wunderground v.1.15,2013-06-09 08:05:00,
2013-06-09 04:10:00,60.0,58.6,29.95,SW,229,0.0,5.0,95,0.00,,,0.00,Wunderground v.1.15,2013-06-09 08:10:00,
2013-06-09 04:15:00,60.0,58.6,29.95,SW,229,0.0,5.0,95,0.00,,,0.00,Wunderground v.1.15,2013-06-09 08:15:00,
2013-06-09 04:20:00,60.0,58.6,29.95,SW,229,0.0,5.0,95,0.00,,,0.00,Wunderground v.1.15,2013-06-09 08:20:00,
2013-06-09 04:25:00,59.9,58.5,29.95,SW,229,0.0,5.0,95,0.00,,,0.00,Wunderground v.1.15,2013-06-09 08:25:00,
2013-06-09 04:30:00,59.9,58.8,29.95,SW,229,0.0,5.0,96,0.00,,,0.00,Wunderground v.1.15,2013-06-09 08:30:00,
2013-06-09 04:35:00,60.0,58.9,29.95,SW,229,0.0,5.0,96,0.00,,,0.00,Wunderground v.1.15,2013-06-09 08:35:00,
2013-06-09 04:40:00,60.0,58.9,29.95,SW,229,0.0,5.0,96,0.00,,,0.00,Wunderground v.1.15,2013-06-09 08:40:00,
2013-06-09 04:45:00,60.0,58.9,29.95,SW,229,0.0,5.0,96,0.00,,,0.00,Wunderground v.1.15,2013-06-09 08:45:00,
2013-06-09 04:50:00,60.0,58.9,29.95,SW,229,0.0,5.0,96,0.00,,,0.00,Wunderground v.1.15,2013-06-09 08:50:00,
2013-06-09 04:55:00,60.0,58.9,29.96,SW,229,0.0,5.0,96,0.00,,,0.00,Wunderground v.1.15,2013-06-09 08:55:00,
2013-06-09 05:00:00,60.0,59.1,29.95,SW,229,0.0,5.0,97,0.00,,,0.00,Wunderground v.1.15,2013-06-09 09:00:00,
2013-06-09 05:05:00,60.0,59.1,29.95,SW,229,0.0,5.0,97,0.00,,,0.00,Wunderground v.1.15,2013-06-09 09:05:00,
2013-06-09 05:10:00,60.0,59.1,29.95,SW,229,0.0,5.0,97,0.00,,,0.00,Wunderground v.1.15,2013-06-09 09:10:00,
2013-06-09 05:15:00,60.1,59.2,29.96,SW,229,0.0,5.0,97,0.00,,,0.00,Wunderground v.1.15,2013-06-09 09:15:00,
2013-06-09 05:20:00,60.1,59.2,29.95,SW,229,0.0,5.0,97,0.00,,,0.00,Wunderground v.1.15,2013-06-09 09:20:00,
2013-06-09 05:25:00,60.2,59.3,29.96,SW,229,0.0,5.0,97,0.00,,,0.00,Wunderground v.1.15,2013-06-09 09:25:00,
2013-06-09 05:30:00,60.2,59.3,29.95,SW,229,0.0,5.0,97,0.00,,,0.00,Wunderground v.1.15,2013-06-09 09:30:00,
2013-06-09 05:35:00,60.3,59.4,29.96,SW,229,0.0,5.0,97,0.00,,,0.00,Wunderground v.1.15,2013-06-09 09:35:00,
2013-06-09 05:40:00,60.2,59.3,29.95,SW,229,0.0,5.0,97,0.00,,,0.00,Wunderground v.1.15,2013-06-09 09:40:00,
2013-06-09 05:45:00,60.3,59.4,29.95,SW,229,0.0,5.0,97,0.00,,,0.00,Wunderground v.1.15,2013-06-09 09:45:00,
2013-06-09 05:50:00,60.4,59.5,29.95,SW,229,0.0,5.0,97,0.00,,,0.00,Wunderground v.1.15,2013-06-09 09:50:00,
2013-06-09 05:55:00,60.5,59.9,29.95,SW,229,0.0,5.0,98,0.00,,,0.00,Wunderground v.1.15,2013-06-09 09:55:00,
2013-06-09 06:00:00,60.5,59.9,29.95,SW,229,0.0,0.0,98,0.00,,,0.00,Wunderground v.1.15,2013-06-09 10:00:00,
2013-06-09 06:10:00,60.4,59.5,29.96,SW,229,0.0,0.0,97,0.00,,,0.00,Wunderground v.1.15,2013-06-09 10:10:00,
2013-06-09 06:15:00,60.3,59.4,29.96,SW,229,0.0,0.0,97,0.00,,,0.00,Wunderground v.1.15,2013-06-09 10:15:00,
2013-06-09 06:20:00,60.3,59.7,29.96,SW,229,0.0,0.0,98,0.00,,,0.00,Wunderground v.1.15,2013-06-09 10:20:00,
2013-06-09 06:25:00,60.3,59.7,29.96,SW,229,0.0,0.0,98,0.00,,,0.00,Wunderground v.1.15,2013-06-09 10:25:00,
2013-06-09 06:30:00,60.2,59.3,29.96,SW,229,0.0,0.0,97,0.00,,,0.00,Wunderground v.1.15,2013-06-09 10:30:00,
2013-06-09 06:40:00,60.2,59.6,29.96,SW,229,0.0,0.0,98,0.00,,,0.00,Wunderground v.1.15,2013-06-09 10:40:00,
2013-06-09 06:45:00,60.3,59.7,29.96,SW,229,0.0,0.0,98,0.00,,,0.00,Wunderground v.1.15,2013-06-09 10:45:00,
2013-06-09 06:50:00,60.3,59.7,29.96,SW,229,0.0,0.0,98,0.00,,,0.00,Wunderground v.1.15,2013-06-09 10:50:00,
2013-06-09 06:55:00,60.5,59.9,29.97,SW,229,0.0,0.0,98,0.00,,,0.00,Wunderground v.1.15,2013-06-09 10:55:00,
2013-06-09 07:00:00,60.7,60.1,29.97,SW,229,0.0,0.0,98,0.00,,,0.00,Wunderground v.1.15,2013-06-09 11:00:00,
2013-06-09 07:05:00,60.9,60.3,29.97,SW,229,0.0,0.0,98,0.00,,,0.00,Wunderground v.1.15,2013-06-09 11:05:00,
2013-06-09 07:15:00,61.2,60.9,29.96,SW,229,0.0,0.0,99,0.00,,,0.00,Wunderground v.1.15,2013-06-09 11:15:00,
2013-06-09 07:20:00,61.5,61.2,29.96,SW,229,0.0,0.0,99,0.00,,,0.00,Wunderground v.1.15,2013-06-09 11:20:00,
2013-06-09 07:30:00,61.9,61.6,29.96,SW,229,0.0,0.0,99,0.00,,,0.00,Wunderground v.1.15,2013-06-09 11:30:00,
2013-06-09 07:35:00,62.1,61.8,29.96,SW,229,0.0,0.0,99,0.00,,,0.00,Wunderground v.1.15,2013-06-09 11:35:00,
2013-06-09 07:40:00,62.3,62.0,29.96,SW,229,0.0,0.0,99,0.00,,,0.00,Wunderground v.1.15,2013-06-09 11:40:00,
2013-06-09 07:50:00,62.6,62.3,29.96,SW,229,0.0,0.0,99,0.00,,,0.00,Wunderground v.1.15,2013-06-09 11:50:00,
2013-06-09 07:55:00,62.9,62.6,29.96,SW,229,0.0,0.0,99,0.00,,,0.00,Wunderground v.1.15,2013-06-09 11:55:00,
2013-06-09 08:00:00,63.1,62.8,29.96,SW,229,0.0,0.0,99,0.00,,,0.00,Wunderground v.1.15,2013-06-09 12:00:00,
2013-06-09 08:05:00,63.3,63.0,29.96,SW,229,0.0,0.0,99,0.00,,,0.00,Wunderground v.1.15,2013-06-09 12:05:00,
2013-06-09 08:10:00,63.6,63.3,29.96,SW,229,0.0,0.0,99,0.00,,,0.00,Wunderground v.1.15,2013-06-09 12:10:00,
2013-06-09 08:20:00,64.1,63.5,29.96,SW,229,0.0,0.0,98,0.00,,,0.00,Wunderground v.1.15,2013-06-09 12:20:00,
2013-06-09 08:25:00,64.4,63.8,29.96,SW,229,0.0,0.0,98,0.00,,,0.00,Wunderground v.1.15,2013-06-09 12:25:00,
2013-06-09 08:35:00,65.0,64.4,29.96,SW,229,0.0,0.0,98,0.00,,,0.00,Wunderground v.1.15,2013-06-09 12:35:00,
2013-06-09 08:40:00,65.3,64.4,29.96,SW,229,0.0,0.0,97,0.00,,,0.00,Wunderground v.1.15,2013-06-09 12:40:00,
2013-06-09 08:45:00,65.6,64.4,29.96,SW,229,0.0,0.0,96,0.00,,,0.00,Wunderground v.1.15,2013-06-09 12:45:00,
2013-06-09 08:50:00,65.9,64.7,29.96,SW,229,0.0,0.0,96,0.00,,,0.00,Wunderground v.1.15,2013-06-09 12:50:00,
2013-06-09 08:55:00,66.1,64.6,29.95,SW,229,0.0,0.0,95,0.00,,,0.00,Wunderground v.1.15,2013-06-09 12:55:00,
2013-06-09 09:00:00,66.4,64.6,29.95,SW,229,0.0,0.0,94,0.00,,,0.00,Wunderground v.1.15,2013-06-09 13:00:00,
2013-06-09 09:10:00,67.4,65.3,29.96,SW,229,0.0,0.0,93,0.00,,,0.00,Wunderground v.1.15,2013-06-09 13:10:00,
2013-06-09 09:15:00,68.3,65.6,29.96,SSW,205,0.0,0.0,91,0.00,,,0.00,Wunderground v.1.15,2013-06-09 13:15:00,
2013-06-09 09:20:00,69.0,65.3,29.95,SSW,205,0.0,0.0,88,0.00,,,0.00,Wunderground v.1.15,2013-06-09 13:20:00,
2013-06-09 09:25:00,69.9,65.5,29.96,SSW,197,0.0,0.0,86,0.00,,,0.00,Wunderground v.1.15,2013-06-09 13:25:00,
2013-06-09 09:30:00,70.5,65.1,29.96,SSW,197,0.0,0.0,83,0.00,,,0.00,Wunderground v.1.15,2013-06-09 13:30:00,
2013-06-09 09:35:00,71.1,65.7,29.96,SSW,197,0.0,3.0,83,0.00,,,0.00,Wunderground v.1.15,2013-06-09 13:35:00,
2013-06-09 09:40:00,71.7,65.6,29.96,SSW,197,0.0,0.0,81,0.00,,,0.00,Wunderground v.1.15,2013-06-09 13:40:00,
2013-06-09 09:45:00,72.5,64.9,29.96,SW,223,0.0,0.0,77,0.00,,,0.00,Wunderground v.1.15,2013-06-09 13:45:00,
2013-06-09 09:50:00,72.9,64.9,29.95,SSW,205,1.0,1.0,76,0.00,,,0.00,Wunderground v.1.15,2013-06-09 13:50:00,
2013-06-09 09:55:00,73.4,64.2,29.96,South,184,0.0,1.0,73,0.00,,,0.00,Wunderground v.1.15,2013-06-09 13:55:00,
2013-06-09 10:00:00,73.8,63.8,29.95,East,88,0.0,0.0,71,0.00,,,0.00,Wunderground v.1.15,2013-06-09 14:00:00,
2013-06-09 10:05:00,74.1,64.5,29.95,South,178,0.0,1.0,72,0.00,,,0.00,Wunderground v.1.15,2013-06-09 14:05:00,
2013-06-09 10:10:00,74.5,64.1,29.95,South,190,0.0,1.0,70,0.00,,,0.00,Wunderground v.1.15,2013-06-09 14:10:00,
2013-06-09 10:25:00,75.0,64.1,29.95,South,176,1.0,1.0,69,0.00,,,0.00,Wunderground v.1.15,2013-06-09 14:25:00,
2013-06-09 10:30:00,74.8,64.4,29.95,SSW,198,1.0,2.0,70,0.00,,,0.00,Wunderground v.1.15,2013-06-09 14:30:00,
2013-06-09 10:40:00,74.6,64.2,29.95,SSW,194,1.0,1.0,70,0.00,,,0.00,Wunderground v.1.15,2013-06-09 14:40:00,
2013-06-09 10:45:00,74.6,64.6,29.95,SSW,194,1.0,1.0,71,0.00,,,0.00,Wunderground v.1.15,2013-06-09 14:45:00,
2013-06-09 10:50:00,74.7,64.3,29.94,SSW,194,1.0,1.0,70,0.00,,,0.00,Wunderground v.1.15,2013-06-09 14:50:00,
2013-06-09 10:55:00,74.9,64.9,29.94,SSW,194,0.0,1.0,71,0.00,,,0.00,Wunderground v.1.15,2013-06-09 14:55:00,
2013-06-09 11:00:00,75.2,63.5,29.94,SSE,164,0.0,2.0,67,0.00,,,0.00,Wunderground v.1.15,2013-06-09 15:00:00,
2013-06-09 11:05:00,75.3,64.4,29.94,East,94,1.0,2.0,69,0.00,,,0.00,Wunderground v.1.15,2013-06-09 15:05:00,
2013-06-09 11:10:00,75.2,63.5,29.94,South,176,1.0,1.0,67,0.00,,,0.00,Wunderground v.1.15,2013-06-09 15:10:00,
2013-06-09 11:15:00,74.9,62.8,29.94,NE,35,1.0,1.0,66,0.00,,,0.00,Wunderground v.1.15,2013-06-09 15:15:00,
2013-06-09 11:20:00,74.8,63.5,29.94,South,172,1.0,1.0,68,0.00,,,0.00,Wunderground v.1.15,2013-06-09 15:20:00,
2013-06-09 11:25:00,75.1,64.6,29.94,West,269,0.0,3.0,70,0.00,,,0.00,Wunderground v.1.15,2013-06-09 15:25:00,
2013-06-09 11:30:00,75.3,63.6,29.95,South,191,1.0,1.0,67,0.00,,,0.00,Wunderground v.1.15,2013-06-09 15:30:00,
2013-06-09 11:40:00,75.9,62.4,29.95,SSE,150,1.0,1.0,63,0.00,,,0.00,Wunderground v.1.15,2013-06-09 15:40:00,
2013-06-09 11:45:00,76.0,62.0,29.94,SSW,207,1.0,1.0,62,0.00,,,0.00,Wunderground v.1.15,2013-06-09 15:45:00,
2013-06-09 11:55:00,76.0,62.9,29.95,SW,217,2.0,4.0,64,0.00,,,0.00,Wunderground v.1.15,2013-06-09 15:55:00,
2013-06-09 12:05:00,77.4,62.9,29.94,ESE,119,2.0,4.0,61,0.00,,,0.00,Wunderground v.1.15,2013-06-09 16:05:00,
2013-06-09 12:10:00,78.1,62.1,29.94,South,184,1.0,1.0,58,0.00,,,0.00,Wunderground v.1.15,2013-06-09 16:10:00,
2013-06-09 12:15:00,78.2,62.7,29.93,SW,227,1.0,2.0,59,0.00,,,0.00,Wunderground v.1.15,2013-06-09 16:15:00,
2013-06-09 12:20:00,78.2,62.7,29.93,WSW,245,1.0,2.0,59,0.00,,,0.00,Wunderground v.1.15,2013-06-09 16:20:00,
2013-06-09 12:25:00,78.5,61.0,29.93,SW,217,2.0,7.0,55,0.00,,,0.00,Wunderground v.1.15,2013-06-09 16:25:00,
2013-06-09 12:30:00,78.6,61.6,29.93,SW,223,2.0,3.0,56,0.00,,,0.00,Wunderground v.1.15,2013-06-09 16:30:00,
2013-06-09 12:35:00,79.1,61.5,29.93,South,190,1.0,3.0,55,0.00,,,0.00,Wunderground v.1.15,2013-06-09 16:35:00,
2013-06-09 12:40:00,79.9,61.2,29.92,SE,145,1.0,1.0,53,0.00,,,0.00,Wunderground v.1.15,2013-06-09 16:40:00,
2013-06-09 12:45:00,80.4,60.6,29.92,SSE,158,1.0,2.0,51,0.00,,,0.00,Wunderground v.1.15,2013-06-09 16:45:00,
2013-06-09 12:50:00,80.3,61.1,29.92,South,176,1.0,1.0,52,0.00,,,0.00,Wunderground v.1.15,2013-06-09 16:50:00,
2013-06-09 12:55:00,80.5,60.7,29.92,South,190,2.0,2.0,51,0.00,,,0.00,Wunderground v.1.15,2013-06-09 16:55:00,
2013-06-09 13:00:00,80.9,61.1,29.91,SSW,206,1.0,1.0,51,0.00,,,0.00,Wunderground v.1.15,2013-06-09 17:00:00,
2013-06-09 13:10:00,81.4,60.4,29.91,SE,130,2.0,2.0,49,0.00,,,0.00,Wunderground v.1.15,2013-06-09 17:10:00,
2013-06-09 13:15:00,81.4,58.0,29.91,South,184,2.0,2.0,45,0.00,,,0.00,Wunderground v.1.15,2013-06-09 17:15:00,
2013-06-09 13:20:00,80.9,59.4,29.90,SSW,213,1.0,1.0,48,0.00,,,0.00,Wunderground v.1.15,2013-06-09 17:20:00,
2013-06-09 13:30:00,79.9,58.5,29.90,SSW,192,2.0,4.0,48,0.00,,,0.00,Wunderground v.1.15,2013-06-09 17:30:00,
2013-06-09 13:35:00,79.2,59.0,29.90,SSW,200,2.0,4.0,50,0.00,,,0.00,Wunderground v.1.15,2013-06-09 17:35:00,
2013-06-09 13:40:00,78.5,58.9,29.90,South,182,2.0,2.0,51,0.00,,,0.00,Wunderground v.1.15,2013-06-09 17:40:00,
2013-06-09 13:50:00,78.7,59.0,29.90,South,179,1.0,1.0,51,0.00,,,0.00,Wunderground v.1.15,2013-06-09 17:50:00,
2013-06-09 13:55:00,79.1,62.1,29.90,SSW,203,1.0,3.0,56,0.00,,,0.00,Wunderground v.1.15,2013-06-09 17:55:00,
2013-06-09 14:00:00,79.5,59.8,29.89,ESE,119,1.0,2.0,51,0.00,,,0.00,Wunderground v.1.15,2013-06-09 18:00:00,
2013-06-09 14:05:00,80.0,61.3,29.89,ESE,105,2.0,2.0,53,0.00,,,0.00,Wunderground v.1.15,2013-06-09 18:05:00,
2013-06-09 14:20:00,80.8,58.7,29.89,SSW,196,2.0,2.0,47,0.00,,,0.00,Wunderground v.1.15,2013-06-09 18:20:00,
2013-06-09 14:25:00,80.8,58.7,29.88,SSW,202,1.0,2.0,47,0.00,,,0.00,Wunderground v.1.15,2013-06-09 18:25:00,
2013-06-09 14:30:00,80.7,58.6,29.88,NE,55,1.0,2.0,47,0.00,,,0.00,Wunderground v.1.15,2013-06-09 18:30:00,
2013-06-09 14:40:00,81.1,60.1,29.88,SSW,199,2.0,2.0,49,0.00,,,0.00,Wunderground v.1.15,2013-06-09 18:40:00,
2013-06-09 14:45:00,81.1,60.7,29.88,SW,234,2.0,3.0,50,0.00,,,0.00,Wunderground v.1.15,2013-06-09 18:45:00,
2013-06-09 14:55:00,80.7,62.5,29.87,ESE,118,2.0,2.0,54,0.00,,,0.00,Wunderground v.1.15,2013-06-09 18:55:00,
2013-06-09 15:05:00,82.0,60.4,29.86,ESE,103,2.0,2.0,48,0.00,,,0.00,Wunderground v.1.15,2013-06-09 19:05:00,
2013-06-09 15:10:00,82.4,61.3,29.86,East,83,2.0,2.0,49,0.00,,,0.00,Wunderground v.1.15,2013-06-09 19:10:00,
2013-06-09 15:20:00,82.4,61.9,29.86,SSW,206,2.0,2.0,50,0.00,,,0.00,Wunderground v.1.15,2013-06-09 19:20:00,
2013-06-09 15:25:00,82.2,60.6,29.86,SSW,196,1.0,2.0,48,0.00,,,0.00,Wunderground v.1.15,2013-06-09 19:25:00,
2013-06-09 15:40:00,81.7,59.5,29.85,WSW,248,2.0,4.0,47,0.00,,,0.00,Wunderground v.1.15,2013-06-09 19:40:00,
2013-06-09 15:45:00,81.5,59.9,29.85,South,172,2.0,4.0,48,0.00,,,0.00,Wunderground v.1.15,2013-06-09 19:45:00,
2013-06-09 15:55:00,80.1,58.6,29.84,ESE,105,2.0,2.0,48,0.00,,,0.00,Wunderground v.1.15,2013-06-09 19:55:00,
2013-06-09 16:00:00,80.1,60.9,29.84,WSW,250,1.0,1.0,52,0.00,,,0.00,Wunderground v.1.15,2013-06-09 20:00:00,
2013-06-09 16:05:00,80.3,60.5,29.84,ESE,113,1.0,1.0,51,0.00,,,0.00,Wunderground v.1.15,2013-06-09 20:05:00,
2013-06-09 16:15:00,80.5,59.6,29.84,South,169,1.0,3.0,49,0.00,,,0.00,Wunderground v.1.15,2013-06-09 20:15:00,
2013-06-09 16:20:00,80.8,61.5,29.83,NE,41,1.0,1.0,52,0.00,,,0.00,Wunderground v.1.15,2013-06-09 20:20:00,
2013-06-09 16:25:00,80.9,60.5,29.83,South,169,1.0,1.0,50,0.00,,,0.00,Wunderground v.1.15,2013-06-09 20:25:00,
2013-06-09 16:30:00,80.5,58.4,29.83,WSW,249,1.0,1.0,47,0.00,,,0.00,Wunderground v.1.15,2013-06-09 20:30:00,
2013-06-09 16:35:00,80.3,60.0,29.83,ESE,109,1.0,1.0,50,0.00,,,0.00,Wunderground v.1.15,2013-06-09 20:35:00,
2013-06-09 16:50:00,80.3,60.0,29.83,ENE,74,1.0,1.0,50,0.00,,,0.00,Wunderground v.1.15,2013-06-09 20:50:00,
2013-06-09 16:55:00,80.3,60.5,29.83,ENE,77,1.0,1.0,51,0.00,,,0.00,Wunderground v.1.15,2013-06-09 20:55:00,
2013-06-09 17:00:00,80.3,60.0,29.83,SE,132,0.0,0.0,50,0.00,,,0.00,Wunderground v.1.15,2013-06-09 21:00:00,
2013-06-09 17:05:00,80.4,58.9,29.82,ESE,110,1.0,1.0,48,0.00,,,0.00,Wunderground v.1.15,2013-06-09 21:05:00,
2013-06-09 17:10:00,80.6,59.1,29.82,SSE,155,1.0,1.0,48,0.00,,,0.00,Wunderground v.1.15,2013-06-09 21:10:00,
2013-06-09 17:20:00,80.9,59.9,29.82,East,91,2.0,2.0,49,0.00,,,0.00,Wunderground v.1.15,2013-06-09 21:20:00,
2013-06-09 17:25:00,80.6,59.7,29.82,ESE,118,1.0,3.0,49,0.00,,,0.00,Wunderground v.1.15,2013-06-09 21:25:00,
2013-06-09 17:30:00,80.4,60.1,29.82,SE,142,1.0,1.0,50,0.00,,,0.00,Wunderground v.1.15,2013-06-09 21:30:00,
2013-06-09 17:35:00,80.1,59.8,29.82,East,99,1.0,1.0,50,0.00,,,0.00,Wunderground v.1.15,2013-06-09 21:35:00,
2013-06-09 17:40:00,80.0,59.7,29.82,ESE,104,1.0,1.0,50,0.00,,,0.00,Wunderground v.1.15,2013-06-09 21:40:00,
2013-06-09 17:50:00,79.9,60.2,29.82,ESE,108,1.0,1.0,51,0.00,,,0.00,Wunderground v.1.15,2013-06-09 21:50:00,
2013-06-09 18:00:00,79.3,59.6,29.82,East,80,2.0,2.0,51,0.00,,,0.00,Wunderground v.1.15,2013-06-09 22:00:00,
2013-06-09 18:10:00,78.8,60.2,29.82,South,189,1.0,1.0,53,0.00,,,0.00,Wunderground v.1.15,2013-06-09 22:10:00,
2013-06-09 18:15:00,78.7,60.7,29.82,ESE,111,1.0,1.0,54,0.00,,,0.00,Wunderground v.1.15,2013-06-09 22:15:00,
2013-06-09 18:30:00,78.8,60.2,29.81,ENE,74,0.0,1.0,53,0.00,,,0.00,Wunderground v.1.15,2013-06-09 22:30:00,
2013-06-09 18:45:00,78.4,60.4,29.80,ESE,113,1.0,2.0,54,0.00,,,0.00,Wunderground v.1.15,2013-06-09 22:45:00,
2013-06-09 18:50:00,78.3,60.3,29.80,SE,135,1.0,1.0,54,0.00,,,0.00,Wunderground v.1.15,2013-06-09 22:50:00,
2013-06-09 18:55:00,78.3,60.8,29.80,South,169,1.0,1.0,55,0.00,,,0.00,Wunderground v.1.15,2013-06-09 22:55:00,
2013-06-09 19:00:00,78.5,62.0,29.79,East,97,0.0,1.0,57,0.00,,,0.00,Wunderground v.1.15,2013-06-09 23:00:00,
2013-06-09 19:05:00,78.8,61.3,29.79,East,79,1.0,1.0,55,0.00,,,0.00,Wunderground v.1.15,2013-06-09 23:05:00,
2013-06-09 19:10:00,78.8,61.8,29.79,ENE,63,1.0,1.0,56,0.00,,,0.00,Wunderground v.1.15,2013-06-09 23:10:00,
2013-06-09 19:20:00,78.4,61.4,29.80,SW,234,1.0,6.0,56,0.00,,,0.00,Wunderground v.1.15,2013-06-09 23:20:00,
2013-06-09 19:25:00,78.0,61.0,29.80,SSE,148,1.0,6.0,56,0.00,,,0.00,Wunderground v.1.15,2013-06-09 23:25:00,
2013-06-09 19:30:00,77.7,61.3,29.80,NNE,18,1.0,1.0,57,0.00,,,0.00,Wunderground v.1.15,2013-06-09 23:30:00,
2013-06-09 19:35:00,77.4,61.5,29.80,SSW,200,1.0,1.0,58,0.00,,,0.00,Wunderground v.1.15,2013-06-09 23:35:00,
2013-06-09 19:45:00,76.8,61.4,29.80,South,190,1.0,1.0,59,0.00,,,0.00,Wunderground v.1.15,2013-06-09 23:45:00,
2013-06-09 19:50:00,76.6,61.7,29.80,SE,127,1.0,1.0,60,0.00,,,0.00,Wunderground v.1.15,2013-06-09 23:50:00,
2013-06-09 19:55:00,76.3,61.4,29.80,SE,127,0.0,1.0,60,0.00,,,0.00,Wunderground v.1.15,2013-06-09 23:55:00,
2013-06-09 20:00:00,76.1,61.2,29.81,WSW,245,0.0,0.0,60,0.00,,,0.00,Wunderground v.1.15,2013-06-10 00:00:00,
2013-06-09 20:05:00,76.0,61.6,29.81,ESE,111,1.0,2.0,61,0.00,,,0.00,Wunderground v.1.15,2013-06-10 00:05:00,
2013-06-09 20:10:00,75.9,61.5,29.80,ESE,103,1.0,1.0,61,0.00,,,0.00,Wunderground v.1.15,2013-06-10 00:10:00,
2013-06-09 20:20:00,75.5,61.6,29.80,SE,130,0.0,1.0,62,0.00,,,0.00,Wunderground v.1.15,2013-06-10 00:20:00,
2013-06-09 20:25:00,75.4,61.9,29.80,SSW,198,1.0,1.0,63,0.00,,,0.00,Wunderground v.1.15,2013-06-10 00:25:00,
2013-06-09 20:30:00,75.2,62.2,29.80,NW,324,1.0,1.0,64,0.00,,,0.00,Wunderground v.1.15,2013-06-10 00:30:00,